Погода в Полховском Майдане

Россия / Нижегородская область     54°51′05″N   42°38′39″E
темп.,
°C
ветер,
м/с
пор.,
м/с
влажн.,
%
обл.,
%
осадки,
мм/ч
давл.,
гПа
погр.,
м
16 сентября, чт
чт1600:00+7зсз4788100 0.1 1012501
03:00+7зсз4982100 0.3 1012656
06:00+6зсз4891100 0.6 1013436
09:00+7сз489598 1.9 1014446
12:00+8сз468762 0.3 1016508
15:00+10ссз5667100 0.4 1017945
18:00+9сз4767100 0.0 1017441
21:00+8сз3662100 0.0 1018295
17 сентября, пт
пт1700:00+8сз3555100 0.0 1018239
03:00+7сз2563100 0.0 1018236
06:00+6сз2568100 0.0 1019273
09:00+7ссз2458100 0.0 1019775
12:00+9сз345097 0.0 10181487
15:00+10сз3449100 0.1 10181419
18:00+8ссз3553100 0.1 1019217
21:00+6с377059 0.2 1020237
18 сентября, сб
сб1800:00+2с34830 0.0 102148
03:00+1с22805 0.0 102233
06:00+1с34925 0.0 102370
09:00+7ссв35637 0.0 1023653
12:00+9св4451100 0.0 10241355
15:00+9св445290 0.0 10241345
18:00+8св355383 0.0 1024188
21:00+7всв2355100 0.0 102576
19 сентября, вс
вс1900:00+4всв3370100 0.0 102638
03:00+2всв3481100 0.0 102672
06:00+1в3580100 0.0 102788
09:00+7в4655100 0.0 1027535
12:00+10в5542100 0.0 10261175
15:00+11в5638100 0.0 10251339
18:00+9всв4846100 0.0 1024257
21:00+8всв51151100 0.0 1024433
20 сентября, пн
пн2000:00+7в61349100 0.0 1023549
03:00+7в61258100 0.4 1023676
06:00+5в71472100 1.6 1022650
09:00+5в81590100 5.3 1022702
12:00+5в91791100 3.9 1022820
15:00+5в81692100 6.9 1021858
18:00+5в81593100 3.8 1021855
21:00+5в81593100 6.9 1020834